Retour au catalogue

THORAD AGENA D DEB

ActifPO
NORAD 4971·DEBRIS·🇺🇸 United States

Lancé Apr 8, 1970 depuis Vandenberg Space Force Base

Loading…

Prochains Passages (prochaines 24 heures)

TLE

FraisSource: Space-Track

Époque: Sep 13, 2026, 07:52 UTC

1 04971U 70025GR  26256.32782973  .00000515  00000-0  17663-2 0  9993
2 04971  99.9274 170.2230 0342426 355.6604 124.8915 12.84852470639007

Suivez THORAD AGENA D DEB en temps réel avec AllMySat

Download on the App Store